Regional Weather Roundup
Issued by NWS Wakefield, VA

Home | Current Version | Previous Version | Text Only | Print | Product List | Glossary On
Versions: 1 2 3 4 5 6 7 8 9 10 11 12 13 14 15 16 17 18 19 20 21 22 23 24 25 26 27 28 29 30 31 32 33 34 35 36 37 38 39 40 41 42 43 44 45 46 47 48 49 50
000
ASUS41 KAKQ 020910
RWRAKQ

REGIONAL WEATHER ROUNDUP
NATIONAL WEATHER SERVICE WAKEFIELD VA
500 AM EDT SAT AUG 02 2014

Note: "fair" indicates few or no clouds below 12,000 feet with no
significant weather and/or obstructions to visibility. * = Denotes
station may not report precipitation (e.g., rain,snow,etc.),
thunder or fog.

VAZ042-051-052>054-056-021000-
NORTHERN VIRGINIA

CITY           SKY/WX    TMP DP  RH WIND       PRES   REMARKS
WASH NATIONAL  CLOUDY    69  62  78 N7        30.13S
DULLES         CLOUDY    65  60  84 N5        30.13F
FORT BELVOIR   NOT AVBL
QUANTICO       CLOUDY    65  62  90 N6        30.13R
FREDERICKSBRG* CLOUDY    65  65 100 N3        30.11S
STAFFORD*      CLOUDY    64  64 100 N5        30.16R
WARRENTON      CLOUDY    64  64 100 CALM      30.12F
CULPEPER*      MOCLDY   N/A N/A N/A CALM      30.13S HAZE
MANASSAS*      CLOUDY    64  64 100 CALM      30.13S
LEESBURG*      CLOUDY    64  63  94 N3        30.14S
WINCHESTER     PTCLDY    61  59  94 CALM      30.13F
$$

VAZ048-049-060>072-079>083-021000-
CENTRAL AND SOUTH CENTRAL VIRGINIA...AND NORTH CENTRAL NORTH CAROLINA

CITY           SKY/WX    TMP DP  RH WIND       PRES   REMARKS
RICHMOND       CLOUDY    67  64  90 N8        30.09F FOG
CHESTERFIELD*  CLOUDY   N/A N/A N/A N6        30.10F
HANOVER        CLOUDY    65  64  97 VRB3      30.12S FOG
TAPPAHANNOCK*  CLOUDY    67  64  90 CALM      30.10S
CHARLOTTSVILLE CLOUDY    62  60  93 CALM      30.13R
ORANGE*        CLOUDY    63  61  94 CALM      30.14R
LOUISA*        LGT RAIN  63  63 100 CALM      30.11S
FARMVILLE*     CLOUDY    64  63  94 N3        30.10S FOG
SOUTH HILL*    CLOUDY    64  64 100 N8        30.15S FOG
ROANOKE RAPIDS CLOUDY    64  63  94 CALM      30.08S FOG
RALEIGH        DRIZZLE   65  62  90 N5        30.09F FOG
$$

VAZ088>098-021000-
SOUTHEAST VIRGINIA

CITY           SKY/WX    TMP DP  RH WIND       PRES   REMARKS
NORFOLK        CLOUDY    72  69  90 W5        30.05S
VIRGINIA BEACH CLOUDY    73  71  93 S5        30.06R
NORFOLK NAVAL  CLOUDY    72  70  93 NW7       30.07S
WEST POINT*    CLOUDY    69  67  92 NW3       30.09F
NEWPORT NEWS   CLOUDY    71  66  84 N6        30.07S
LANGLEY AFB    CLOUDY    69  69 100 N8        30.06R
FORT EUSTIS    CLOUDY    68 N/A N/A N6        30.05S
WILLIAMSBURG*  CLOUDY    68  66  94 N3        30.08S
FRANKLIN*      CLOUDY    64 N/A N/A CALM      30.07S
WAKEFIELD      CLOUDY    67  64  90 N3        30.07F
$$

VAZ020-022-025-037-045-021000-
WESTERN AND SOUTHWEST VIRGINIA

CITY           SKY/WX    TMP DP  RH WIND       PRES   REMARKS
STAUNTON*      CLOUDY    60  57  90 CALM      30.17R FOG
HOT SPRINGS VA LGT RAIN  56  55  95 CALM      30.23S VSB<1/4
LYNCHBURG      CLOUDY    62  61  96 CALM      30.15S
DANVILLE       CLOUDY    64  61  90 NE3       30.12S FOG
MARTINSVILLE   CLOUDY    63  62  98 N3        30.16S FOG
ROANOKE        CLOUDY    62  61  96 CALM      30.16S
BLACKSBURG     CLOUDY    61  61 100 CALM      30.19S
DUBLIN*        DRIZZLE   63  63 100 NE3       30.17F
MARION*        CLOUDY    62  60  94 NE6       30.19F FOG
HILLSVILLE*    FOG       60  60 100 CALM      30.17F VSB 1
RICHLANDS*     MOSUNNY   65  60  84 CALM      30.16R
WISE*          PTCLDY    63  55  77 S5        30.16S
ABINGDON*      PTCLDY    63  60  89 E8        30.14S
$$

MDZ021>025-VAZ099-100-021000-
SOUTHERN MARYLAND AND THE DELMARVA PENINSULA

CITY           SKY/WX    TMP DP  RH WIND       PRES   REMARKS
PATUXENT RIVER CLOUDY    66  64  93 NE7       30.08S
BAY BRIDGE APT   N/A     64  63  94 CALM      30.12R
LEONARDTOWN    CLOUDY    64  63  94 CALM      30.11R
DOVER          LGT RAIN  66  66 100 N3        30.09S
GEORGETOWN     LGT RAIN  65  62  90 NE9       30.09F
EASTON         CLOUDY    65  65 100 CALM      30.14R
CAMBRIDGE      CLOUDY    63  61  94 N3        30.08S
SALISBURY      HVY RAIN  64  63  94 NE8       30.07S FOG
OCEAN CITY     LGT RAIN N/A N/A N/A NE14G21   30.06F
WALLOPS ISLAND HVY RAIN  64  64 100 N6        30.06S FOG
ACCOMACK*      DRIZZLE   64  63  94 CALM      30.05R
$$

NCZ012>017-030>032-021000-
EASTERN NORTH CAROLINA

CITY           SKY/WX    TMP DP  RH WIND       PRES   REMARKS
ELIZABETH CITY LGT RAIN  75  72  90 S10       30.04F
AHOSKIE*       CLOUDY    64  63  96 CALM      30.08S
EDENTON*       CLOUDY    75  73  96 SW3       30.05S
CURRITUCK*     CLOUDY    75  72  89 CALM      30.06S
KILL DEVIL HLS CLOUDY    75  74  95 S6        30.05S
MANTEO         NOT AVBL
CAPE HATTERAS  LGT RAIN  75  75 100 S17       30.08R
GOLDSBORO      FOG       68  68 100 N7        30.05S VSB 1
WASHINGTON     CLOUDY    73  72  98 CALM      30.05F
GREENVILLE     FOG       68  68 100 N3        30.08R VSB 1
NEW BERN       CLOUDY    75  72  90 CALM      30.06R
WILMINGTON     LGT RAIN  76  75  97 CALM      30.02S
$$

VAZ048-021000-
ELSEWHERE

CITY           SKY/WX    TMP DP  RH WIND       PRES   REMARKS
HARRISBURG PA  CLOUDY    69  63  81 SE5       30.13F
BALTIMORE      CLOUDY    65  63  93 N3        30.12S
ANNAPOLIS      CLOUDY    67  62  84 N6        30.11S
ANDREWS AFB    CLOUDY    65  64  97 N5        30.12S
WILMINGTON DE  LGT RAIN  67  65  93 NW6       30.14S
PHILADELPHIA   LGT RAIN  68  65  90 NE7       30.13F FOG
WILDWOOD NJ*   CLOUDY    66  63  88 N10       30.11F
ATLANTIC CITY  HVY RAIN  66  65  96 N3        30.12F FOG
HENDERSON NC   CLOUDY    63  62  95 N3        30.11R FOG
GREENSBORO     CLOUDY    62  61  96 NE6       30.11S FOG
ROCKY MOUNT    CLOUDY    66  65  96 N7        30.08S FOG
FAYETTEVILLE   CLOUDY    67  66  97 N9        30.06S
CHARLOTTE      CLOUDY    67  63  87 NE5       30.10S
$$

VAZ100-021000-
MARINE

STATION/POSITION TIME  TEMP    WIND        PRES    WAVE   SWELL
                       AIR SEA DIR/SP/G            HT/PER HT/PER
                 (UTC) (F)     (DEG/KT/KT) (MB)    (FT/S) (FT/S)
44066 TX TWR #4  0900   71 74   50/ 14/ 16 1019.8R   3/ 7   2/ 7
CAPE MAY NJ      0900   66 75   30/  5/  9 1018.7R
LEWES DE         0900   67 72   50/ 14/ 16 1018.2F
15NM E FENWICK I 0900   68 74              1017.7R   4/ 7
OCEAN-CITY-INLET 0900   66 71   30/ 11/ 18 1017.5F
WACHAPREAGUE VA  0900   66 74  350/  3/  5 1017.4R
THOMAS POINT MD  0900   67 77   50/ 12/ 14 1020.2S
GOOSES REEF MD   0900   68      80/ 14/ 16 1019.3S
COVE POINT MD    0900   66      60/ 12/ 14 1018.5F
SOLOMONS ISLAND  0900      78                N/A
BISHOPS HEAD MD  0900   66 73   50/ 12/ 16 1017.5S
PINEY POINT MD   0900          360/  8/  9   N/A
POTOMAC MD       0900   69      70/ 16/ 19 1017.2S
CAMBRIDGE MD     0900   65 78   50/ 11/ 12 1018.4F
LEWISETTA VA     0900   69 76   50/  9/ 12 1018.2F
RAPPAHANNOCK LGT 0900           20/ 12/ 14 1017.7R
STINGRAY PT      0900   71      40/ 14/ 17 1018.2F
YORK RVR RNG VA  0900   70     360/ 10/ 11 1017.2R
YORKTOWN VA      0900   68 78  330/  8/ 10 1017.7F
JAMESTOWN VA     0900   69      30/  4/  8   N/A
DOMINION TERM VA 0900   71     330/  3/  7 1017.9R
KIPTOPEKE VA     0900      79  300/ 10/ 11   N/A
CHES BAY BRIDGE  0900   73 76  230/  8/  9 1017.0R
CAPE HENRY VA    0900   73     210/  4/  6 1016.6R
WILLOUBY STN VA  0900          320/  6/  7 1017.0S
S CRANEY ISL VA  0900          260/  4/  6 1017.7F
CAPE HENRY BUOY  0900      77                N/A     4/ 5
1ST LANDING BUOY 0900   74     230/ 12/ 14 1017.3R
CAPE CHARLES BUO 0900      74                N/A     4/ 5
OFFSHORE WE BUOY 0900      76                N/A     4/ 5
64NM E OF VA BCH 0900   77 77  200/ 14/ 17 1017.5F   4/ 5   2/ 7
DUCK PIER NC     0900   76 65  170/ 12/ 14 1016.8R
44056 DUCK FRF   0900                        N/A     3/ 5
OREGON INLET NC  0900   75 76  170/ 13/ 17 1017.8S
HATTERAS NC      0900   76 78  180/ 13/ 19 1018.9S
DIAMOND SHLS NC  0900          VRB 14/ 16  1018.7F   4/ 7   2/ 7
CAPE LOOKOUT NC  0800   76     150/  4/  4 1017.4F
$$



USA.gov is the U.S. government's official web portal to all federal, state and local government web resources and services.